Dansville, NY

10:06 PM EDT on September 29, 2016 (GMT -0400)
Dansville Municipal

Weather History for KDSV - January, 2013

Change the Weather History Date:

Wednesday, January 9, 2013

  Actual Average Record
Temperature  
Mean Temperature 36 °F -  
Max Temperature 50 °F 28 °F 63 °F (2008)
Min Temperature 23 °F 12 °F -13 °F (1968)
Degree Days  
Heating Degree Days 28    
Moisture  
Dew Point 24 °F    
Average Humidity 64    
Maximum Humidity 81    
Minimum Humidity 42    
Precipitation  
Precipitation 0.00 in - - ()
Sea Level Pressure  
Sea Level Pressure 30.21 in    
Wind  
Wind Speed 9 mph (SSW)    
Max Wind Speed 16 mph    
Max Gust Speed 32 mph    
Visibility 10 miles    
Events      
Averages and records for this station are not official NWS values.
T = Trace of Precipitation, MM = Missing Value Source: NWS Daily Summary

Daily Weather History Graph

Daily Weather History Graph

Search for Another Location

Airport or City:

Trip Planner

Search our weather history database for the weather conditions in past years. The results will help you decide how hot, cold, wet, or windy it might be!

Date:

Astronomy

Jan. 09, 2013 Rise Set
Actual Time 7:40 AM EST 4:56 PM EST
Civil Twilight 7:08 AM EST 5:27 PM EST
Nautical Twilight 6:33 AM EST 6:03 PM EST
Astronomical Twilight 5:59 AM EST 6:37 PM EST
Moon 5:17 AM EST (1/9) 2:55 PM EST (1/9)
Length of Visible Light 10h 19m
Length of Day
9h 16m
Waning Crescent, 6% of the Moon is Illuminated
Jan 9
Waning Crescent
Jan 11
New
Jan 18
First Quarter
Jan 26
Full
Feb 3
Last Quarter

Hourly Weather History & Observations

Time (EST) Temp. Windchill Dew Point Humidity Pressure Visibility Wind Dir Wind Speed Gust Speed Precip Events Conditions
12:54 AM 25.0 °F 17.1 °F 18.0 °F 75% 30.33 in 10.0 mi SSE 6.9 mph - N/A   Clear
1:54 AM 24.1 °F 15.2 °F 19.0 °F 81% 30.33 in 10.0 mi SE 8.1 mph - N/A   Clear
2:54 AM 24.1 °F 17.0 °F 19.0 °F 81% 30.33 in 10.0 mi SSE 5.8 mph - N/A   Clear
3:54 AM 23.0 °F 13.1 °F 18.0 °F 81% 30.31 in 10.0 mi SSE 9.2 mph - N/A   Clear
4:54 AM 24.1 °F 17.0 °F 19.0 °F 81% 30.30 in 10.0 mi SE 5.8 mph - N/A   Clear
5:54 AM 24.1 °F 13.7 °F 19.0 °F 81% 30.29 in 10.0 mi SSE 10.4 mph - N/A   Clear
6:54 AM 24.1 °F 14.4 °F 19.0 °F 81% 30.28 in 10.0 mi SSE 9.2 mph - N/A   Clear
7:54 AM 25.0 °F 16.3 °F 19.9 °F 81% 30.24 in 10.0 mi SSE 8.1 mph - N/A   Clear
8:54 AM 30.0 °F 21.7 °F 23.0 °F 75% 30.22 in 10.0 mi SE 9.2 mph - N/A   Mostly Cloudy
9:54 AM 32.0 °F 26.4 °F 24.1 °F 73% 30.19 in 10.0 mi SSE 5.8 mph - N/A   Mostly Cloudy
10:54 AM 36.0 °F 27.5 °F 26.1 °F 67% 30.13 in 10.0 mi ESE 12.7 mph - N/A   Overcast
11:54 AM 48.0 °F - 32.0 °F 54% 30.06 in 10.0 mi South 12.7 mph 24.2 mph N/A   Clear
12:54 PM 48.9 °F - 34.0 °F 56% 30.04 in 10.0 mi SSW 15.0 mph 29.9 mph N/A   Clear
1:54 PM 48.9 °F - 34.0 °F 56% 30.05 in 10.0 mi WSW 10.4 mph 17.3 mph N/A   Clear
2:54 PM 50.0 °F - 30.9 °F 48% 30.06 in 10.0 mi WSW 8.1 mph 17.3 mph N/A   Clear
3:54 PM 48.0 °F - 30.0 °F 50% 30.09 in 10.0 mi West 10.4 mph 19.6 mph N/A   Clear
4:54 PM 46.0 °F 43.1 °F 26.1 °F 46% 30.12 in 10.0 mi Variable 5.8 mph - N/A   Clear
5:54 PM 45.0 °F 42.6 °F 23.0 °F 42% 30.15 in 10.0 mi West 4.6 mph - N/A   Clear
6:54 PM 44.1 °F 38.6 °F 21.9 °F 42% 30.18 in 10.0 mi West 10.4 mph - N/A   Clear
7:54 PM 44.1 °F 38.1 °F 24.1 °F 45% 30.22 in 10.0 mi West 11.5 mph 16.1 mph N/A   Clear
8:54 PM 43.0 °F 35.4 °F 26.1 °F 51% 30.27 in 10.0 mi NW 16.1 mph 25.3 mph N/A   Mostly Cloudy
9:54 PM 43.0 °F 35.7 °F 28.0 °F 56% 30.32 in 10.0 mi WNW 15.0 mph 32.2 mph N/A   Overcast
11:54 PM 39.9 °F 31.8 °F 26.1 °F 58% 30.40 in 10.0 mi WNW 15.0 mph 28.8 mph N/A   Overcast